Total_Precipitation_Accumulation
1.08 1.07 1.03 1.12 1.10 1.09 1.16 1.15 1.01 1.03 1.00 0.89 0.86 0.88 0.92 0.93 1.12 1.26 1.60 2.21 2.94 3.61 3.76 3.43 2.95 2.64 2.52 2.45 2.36 2.31 2.24 2.26 2.43 2.63 2.55 2.47 2.56 2.58 2.54 2.85 3.10 3.43 3.57
0.90 1.03 1.06 1.15 1.08 1.11 1.20 1.09 1.05 1.08 1.08 0.98 0.91 0.91 0.91 0.95 1.05 1.19 1.37 1.76 2.23 2.92 3.60 3.72 3.33 2.96 2.70 2.64 2.65 2.69 2.47 2.33 2.34 2.56 2.59 2.44 2.43 2.37 2.37 2.57 2.88 3.15 3.57
0.90 1.01 1.09 1.12 1.12 1.12 1.11 1.15 1.19 1.15 1.06 0.99 1.00 0.97 0.92 0.93 1.10 1.22 1.30 1.53 1.64 1.82 2.55 3.32 3.58 3.42 3.16 3.14 3.08 2.94 2.74 2.55 2.39 2.44 2.54 2.42 2.35 2.17 2.26 2.36 2.48 2.60 3.12
0.94 1.16 1.21 1.10 1.16 1.25 1.29 1.33 1.30 1.24 1.17 1.16 1.19 1.13 1.05 1.08 1.21 1.30 1.26 1.29 1.38 1.32 1.59 2.10 2.60 2.98 3.31 3.45 3.43 3.24 3.01 2.79 2.44 2.37 2.39 2.35 2.25 2.08 2.13 2.23 2.28 2.39 2.62
1.11 1.33 1.42 1.28 1.26 1.42 1.40 1.30 1.35 1.42 1.41 1.45 1.34 1.34 1.30 1.32 1.30 1.23 1.21 1.29 1.38 1.39 1.46 1.43 1.69 2.09 2.76 3.31 3.62 3.80 3.42 3.13 2.77 2.54 2.48 2.31 2.17 2.06 2.04 2.08 2.12 2.26 2.35
1.33 1.53 1.67 1.61 1.54 1.68 1.71 1.58 1.70 1.80 1.74 1.80 1.63 1.52 1.46 1.45 1.38 1.36 1.34 1.40 1.53 1.45 1.51 1.48 1.48 1.34 1.76 2.50 3.17 3.66 3.68 3.48 3.15 2.76 2.60 2.26 2.18 2.06 1.95 1.93 2.00 2.16 2.29
1.74 1.89 1.87 2.10 2.15 2.14 2.18 2.13 2.30 2.37 2.12 1.99 2.35 2.27 1.84 1.50 1.36 1.44 1.53 1.59 1.70 1.73 1.71 1.71 1.68 1.45 1.37 1.68 2.34 3.29 3.53 3.43 3.21 2.93 2.83 2.56 2.28 2.07 1.99 1.98 2.02 2.00 2.15
2.11 2.03 2.14 2.39 2.42 2.53 2.61 2.47 2.66 2.80 2.48 2.20 2.70 3.20 2.77 2.26 1.59 1.33 1.44 1.61 1.81 1.85 1.80 1.68 1.70 1.67 1.60 1.65 1.79 2.48 3.09 3.44 3.36 3.19 3.05 2.96 2.48 2.22 2.05 2.04 2.06 2.04 2.02
2.52 2.41 2.38 2.54 2.58 2.66 2.85 2.87 2.85 3.03 2.99 2.64 2.61 3.22 3.23 2.84 2.36 1.76 1.58 1.65 1.85 1.95 1.99 1.93 1.77 1.79 1.72 1.79 1.90 1.80 2.09 2.76 3.27 3.26 3.15 3.07 2.82 2.48 2.17 2.12 2.12 2.04 1.90
2.68 2.60 2.57 2.66 2.70 2.69 2.79 2.84 2.83 3.16 3.43 3.23 2.92 2.67 2.63 2.65 2.71 2.37 1.93 1.76 1.87 1.96 2.07 1.98 1.99 2.07 2.04 2.01 2.00 1.74 1.62 1.86 2.46 2.95 3.07 3.12 2.98 2.71 2.41 2.30 2.32 2.16 2.04
2.49 2.36 2.45 2.61 2.63 2.65 2.66 2.83 2.95 3.25 3.32 3.27 3.19 3.04 2.84 2.65 2.26 2.35 2.33 2.09 2.02 1.91 2.00 2.15 2.23 2.28 2.22 2.36 2.47 1.94 1.57 1.53 1.90 2.43 2.89 3.08 3.18 3.15 2.87 2.57 2.45 2.40 2.36
2.43 2.24 2.29 2.37 2.45 2.52 2.50 2.55 2.74 2.93 3.19 3.35 3.29 3.13 3.11 3.05 2.83 2.60 2.28 2.16 2.29 2.16 2.00 1.99 2.08 2.16 2.30 2.43 2.35 2.16 1.66 1.49 1.62 1.80 2.15 2.65 3.04 3.31 3.23 3.05 2.87 2.70 2.69
2.40 2.36 2.25 2.26 2.29 2.33 2.43 2.62 2.65 2.72 2.92 3.15 3.19 3.14 3.13 2.97 2.90 2.87 2.60 2.24 2.16 2.10 2.01 1.96 1.94 2.01 2.08 2.18 2.21 2.14 1.74 1.62 1.52 1.49 1.54 1.72 2.17 2.69 3.11 3.31 3.27 3.05 3.05
1.96 1.95 2.00 2.09 2.18 2.23 2.32 2.48 2.57 2.59 2.66 2.72 2.75 2.95 3.07 2.96 2.77 2.68 2.67 2.72 2.44 2.21 2.03 1.94 1.89 1.87 1.92 1.93 2.06 2.07 1.64 1.56 1.47 1.38 1.32 1.25 1.39 1.71 2.23 2.64 2.76 2.85 3.09
1.55 1.56 1.60 1.75 1.94 2.05 2.10 2.22 2.39 2.39 2.47 2.50 2.57 2.65 2.68 2.76 2.64 2.45 2.43 2.53 2.66 2.44 2.26 2.06 1.87 1.69 1.73 1.71 1.81 1.57 1.49 1.52 1.48 1.37 1.23 1.13 1.09 1.21 1.51 1.89 2.07 2.01 2.07
1.47 1.53 1.55 1.57 1.68 1.77 1.87 2.02 2.14 2.22 2.28 2.25 2.26 2.34 2.40 2.47 2.47 2.42 2.40 2.44 2.47 2.43 2.30 2.06 1.77 1.52 1.57 1.64 1.81 1.54 1.58 1.77 1.64 1.46 1.22 1.14 1.10 1.08 1.16 1.31 1.43 1.35 1.31
1.51 1.54 1.56 1.59 1.60 1.67 1.73 1.81 1.93 2.06 2.05 2.06 1.94 1.97 2.12 2.23 2.43 2.47 2.43 2.40 2.39 2.31 2.18 2.05 1.79 1.58 1.54 1.65 1.73 1.61 1.62 1.67 1.58 1.50 1.31 1.20 1.09 1.13 1.16 1.20 1.26 1.18 1.05
1.38 1.42 1.53 1.48 1.46 1.51 1.60 1.72 1.81 1.84 1.88 1.83 1.72 1.75 1.87 1.96 2.13 2.25 2.37 2.28 2.29 2.26 2.24 2.18 1.94 1.73 1.65 1.66 1.74 1.69 1.57 1.55 1.56 1.62 1.43 1.30 1.20 1.12 1.18 1.17 1.26 1.30 1.20
1.34 1.41 1.52 1.60 1.49 1.40 1.48 1.57 1.64 1.66 1.64 1.55 1.52 1.58 1.65 1.73 1.84 1.95 2.06 2.15 2.18 2.15 2.24 2.21 2.00 1.80 1.65 1.61 1.66 1.61 1.55 1.62 1.53 1.63 1.57 1.43 1.37 1.25 1.23 1.21 1.20 1.29 1.29
1.21 1.23 1.36 1.46 1.48 1.42 1.36 1.35 1.36 1.53 1.53 1.43 1.32 1.30 1.32 1.36 1.48 1.62 1.73 1.89 2.05 2.18 2.25 2.27 2.11 1.86 1.67 1.62 1.70 1.75 1.73 1.63 1.63 1.54 1.58 1.55 1.55 1.49 1.35 1.30 1.18 1.17 1.25
1.05 1.10 1.25 1.41 1.47 1.45 1.45 1.43 1.33 1.37 1.43 1.45 1.39 1.28 1.16 1.16 1.30 1.38 1.45 1.70 1.90 2.07 2.19 2.23 2.13 1.95 1.78 1.69 1.65 1.67 1.74 1.82 1.81 1.66 1.61 1.52 1.49 1.36 1.23 1.22 1.18 1.10 1.08
0.96 0.96 1.06 1.20 1.34 1.31 1.50 1.55 1.45 1.31 1.31 1.33 1.33 1.32 1.31 1.27 1.15 1.10 1.18 1.34 1.59 1.78 1.94 2.05 2.06 1.88 1.68 1.65 1.72 1.75 1.75 1.80 1.84 1.72 1.66 1.72 1.66 1.53 1.37 1.22 1.25 1.15 1.07
0.93 0.93 1.01 1.14 1.29 1.48 1.55 1.37 1.44 1.39 1.32 1.33 1.29 1.29 1.31 1.28 1.35 1.19 1.15 1.15 1.17 1.35 1.59 1.80 1.82 1.72 1.75 1.69 1.67 1.65 1.64 1.62 1.65 1.69 1.71 1.73 1.71 1.60 1.42 1.33 1.39 1.28 1.20
0.95 0.97 1.03 1.11 1.20 1.43 1.51 1.32 1.51 1.53 1.50 1.44 1.38 1.41 1.46 1.47 1.40 1.51 1.46 1.33 1.21 1.18 1.31 1.24 1.30 1.58 1.72 1.77 1.78 1.79 1.83 1.73 1.65 1.66 1.61 1.64 1.55 1.50 1.41 1.30 1.34 1.24 1.15
0.96 0.98 0.97 0.97 0.99 1.11 1.27 1.20 1.35 1.46 1.55 1.54 1.42 1.39 1.42 1.42 1.66 1.75 1.59 1.50 1.37 1.28 1.48 1.51 1.49 1.56 1.66 1.67 1.66 1.71 1.77 1.74 1.65 1.59 1.49 1.41 1.36 1.44 1.53 1.44 1.34 1.37 1.28
1.01 0.94 0.89 0.86 0.88 0.92 1.13 1.02 1.14 1.22 1.37 1.52 1.50 1.44 1.60 1.52 1.56 1.54 1.44 1.59 1.52 1.36 1.28 1.26 1.25 1.31 1.35 1.42 1.49 1.45 1.58 1.63 1.56 1.58 1.44 1.38 1.35 1.43 1.51 1.45 1.29 1.22 1.25